| time (UTC) | temp F | wind direction | speed knots | gust knots | rain 1hr in | rain 24hr in | rain mn in | humidity % | barometer mb |
| 20260508000022 | 72 | 259 | 9.6 | 13.9 | 0.00 | 0.00 | 0.00 | 10 | 1014.3 |
| 20260507234522 | 72 | 279 | 5.2 | 10.4 | 0.00 | 0.00 | 0.00 | 11 | 1014.4 |
| 20260507233020 | 72 | 232 | 8.7 | 12.2 | 0.00 | 0.00 | 0.00 | 10 | 1014.5 |
| 20260507231518 | 72 | 234 | 7.8 | 13.0 | 0.00 | 0.00 | 0.00 | 10 | 1014.7 |
| 20260507230014 | 71 | 223 | 8.7 | 11.3 | 0.00 | 0.00 | 0.00 | 12 | 1014.8 |
| 20260507224515 | 72 | 242 | 7.8 | 15.6 | 0.00 | 0.00 | 0.00 | 13 | 1015.0 |
| 20260507223009 | 71 | 278 | 7.8 | 13.0 | 0.00 | 0.00 | 0.00 | 14 | 1015.1 |
| 20260507221506 | 70 | 232 | 7.0 | 13.0 | 0.00 | 0.00 | 0.00 | 16 | 1015.3 |
| 20260507220003 | 70 | 242 | 9.6 | 13.9 | 0.00 | 0.00 | 0.00 | 18 | 1015.5 |
| 20260507214501 | 69 | 238 | 3.5 | 10.4 | 0.00 | 0.00 | 0.00 | 21 | 1015.6 |
| 20260507213108 | 69 | 198 | 7.0 | 10.4 | 0.00 | 0.00 | 0.00 | 24 | 1015.8 |
| 20260507211557 | 69 | 229 | 9.6 | 15.6 | 0.00 | 0.00 | 0.00 | 26 | 1015.9 |
| 20260507210056 | 68 | 230 | 8.7 | 15.6 | 0.00 | 0.00 | 0.00 | 26 | 1016.0 |
| 20260507204601 | 68 | 252 | 8.7 | 15.6 | 0.00 | 0.00 | 0.00 | 26 | 1016.1 |
| 20260507203052 | 67 | 233 | 9.6 | 14.8 | 0.00 | 0.00 | 0.00 | 29 | 1016.2 |
| 20260507201549 | 66 | 233 | 11.3 | 15.6 | 0.00 | 0.00 | 0.00 | 30 | 1016.3 |
| 20260507200047 | 66 | 239 | 11.3 | 16.5 | 0.00 | 0.00 | 0.00 | 36 | 1016.5 |
| 20260507194547 | 66 | 235 | 9.6 | 17.4 | 0.00 | 0.00 | 0.00 | 36 | 1016.5 |
| 20260507193043 | 65 | 254 | 10.4 | 18.2 | 0.00 | 0.00 | 0.00 | 36 | 1016.6 |
| 20260507191541 | 64 | 248 | 8.7 | 14.8 | 0.00 | 0.00 | 0.00 | 41 | 1016.7 |
| 20260507190042 | 64 | 235 | 10.4 | 16.5 | 0.00 | 0.00 | 0.00 | 41 | 1016.8 |
| 20260507184539 | 64 | 194 | 7.8 | 14.8 | 0.00 | 0.00 | 0.00 | 42 | 1016.9 |
| 20260507183041 | 63 | 239 | 10.4 | 15.6 | 0.00 | 0.00 | 0.00 | 45 | 1016.9 |
| 20260507181534 | 62 | 227 | 11.3 | 15.6 | 0.00 | 0.00 | 0.00 | 44 | 1017.0 |
| 20260507180034 | 62 | 226 | 9.6 | 14.8 | 0.00 | 0.00 | 0.00 | 49 | 1017.0 |
| 20260507174536 | 61 | 234 | 13.0 | 16.5 | 0.00 | 0.00 | 0.00 | 49 | 1017.1 |
| 20260507173033 | 60 | 232 | 13.0 | 16.5 | 0.00 | 0.00 | 0.00 | 50 | 1017.1 |
| 20260507171525 | 60 | 230 | 13.0 | 15.6 | 0.00 | 0.00 | 0.00 | 53 | 1017.2 |
| 20260507170023 | 59 | 245 | 14.8 | 20.0 | 0.00 | 0.00 | 0.00 | 54 | 1017.2 |
| 20260507164523 | 58 | 238 | 11.3 | 17.4 | 0.00 | 0.00 | 0.00 | 59 | 1017.2 |
| 20260507163018 | 57 | 238 | 7.8 | 13.9 | 0.00 | 0.00 | 0.00 | 63 | 1017.2 |
| 20260507161516 | 57 | 221 | 8.7 | 13.9 | 0.00 | 0.00 | 0.00 | 65 | 1017.1 |
| 20260507160014 | 56 | 219 | 12.2 | 19.1 | 0.00 | 0.00 | 0.00 | 67 | 1017.2 |
| 20260507154509 | 55 | 236 | 13.9 | 20.0 | 0.00 | 0.00 | 0.00 | 69 | 1017.2 |
| 20260507153006 | 54 | 241 | 16.5 | 20.0 | 0.00 | 0.00 | 0.00 | 71 | 1017.0 |
| 20260507151504 | 54 | 234 | 15.6 | 20.9 | 0.00 | 0.00 | 0.00 | 73 | 1017.0 |
| 20260507150002 | 52 | 229 | 12.2 | 16.5 | 0.00 | 0.00 | 0.00 | 78 | 1017.0 |
| 20260507144602 | 50 | 219 | 8.7 | 15.6 | 0.00 | 0.00 | 0.00 | 81 | 1016.9 |
| 20260507143102 | 50 | 209 | 13.0 | 17.4 | 0.00 | 0.00 | 0.00 | 80 | 1016.8 |
| 20260507141602 | 0 | 0.0 | 0.0 | 0.00 | 0.00 | 0.00 | 1016.9 | ||
| 20260507140108 | 0 | 0.0 | 0.0 | 0.00 | 0.00 | 0.00 | 1016.4 | ||
| 20260507134547 | 0 | 0.0 | 0.0 | 0.00 | 0.00 | 0.00 | 1016.4 | ||
| 20260507133042 | 0 | 0.0 | 0.0 | 0.00 | 0.00 | 0.00 | 1016.5 | ||
| 20260507131539 | 0 | 0.0 | 0.0 | 0.00 | 0.00 | 0.00 | 1016.2 | ||
| 20260507130043 | 0 | 0.0 | 0.0 | 0.00 | 0.00 | 0.00 | 1016.1 | ||
| 20260507124530 | 0 | 0.0 | 0.0 | 0.00 | 0.00 | 0.00 | 1016.2 | ||
| 20260507123029 | 0 | 0.0 | 0.0 | 0.00 | 0.00 | 0.00 | 1016.3 | ||
| 20260507121521 | 0 | 0.0 | 0.0 | 0.00 | 0.00 | 0.00 | 1016.4 | ||
| 20260507120017 | 0 | 0.0 | 0.0 | 0.00 | 0.00 | 0.00 | 1016.4 | ||
| 20260507114512 | 0 | 0.0 | 0.0 | 0.00 | 0.00 | 0.00 | 1016.4 | ||
| 20260507113007 | 0 | 0.0 | 0.0 | 0.00 | 0.00 | 0.00 | 1016.0 | ||
| 20260507111504 | 0 | 0.0 | 0.0 | 0.00 | 0.00 | 0.00 | 1016.1 | ||
| 20260507104559 | 50 | 186 | 5.2 | 13.9 | 0.00 | 0.00 | 0.00 | 81 | 1016.2 |
| 20260507103056 | 51 | 218 | 7.8 | 16.5 | 0.00 | 0.00 | 0.00 | 80 | 1016.2 |
| 20260507101553 | 52 | 246 | 11.3 | 16.5 | 0.00 | 0.00 | 0.00 | 79 | 1016.1 |
| 20260507100051 | 52 | 219 | 9.6 | 15.6 | 0.00 | 0.00 | 0.00 | 79 | 1016.3 |
| 20260507094553 | 52 | 227 | 13.0 | 17.4 | 0.00 | 0.00 | 0.00 | 77 | 1016.3 |
| 20260507093048 | 53 | 248 | 12.2 | 20.0 | 0.00 | 0.00 | 0.00 | 76 | 1016.1 |
| 20260507091547 | 53 | 241 | 12.2 | 17.4 | 0.00 | 0.00 | 0.00 | 75 | 1016.1 |
| 20260507090044 | 53 | 242 | 12.2 | 16.5 | 0.00 | 0.00 | 0.00 | 74 | 1016.2 |
| 20260507084551 | 53 | 250 | 13.0 | 20.0 | 0.00 | 0.00 | 0.00 | 74 | 1016.2 |
| 20260507083047 | 52 | 219 | 6.1 | 13.0 | 0.00 | 0.00 | 0.00 | 72 | 1016.2 |
| 20260507081538 | 52 | 247 | 8.7 | 13.0 | 0.00 | 0.00 | 0.00 | 73 | 1016.1 |
| 20260507080040 | 53 | 234 | 9.6 | 13.9 | 0.00 | 0.00 | 0.00 | 71 | 1016.1 |
| 20260507074540 | 54 | 226 | 11.3 | 16.5 | 0.00 | 0.00 | 0.00 | 70 | 1016.0 |
| 20260507073032 | 53 | 234 | 10.4 | 13.0 | 0.00 | 0.00 | 0.00 | 71 | 1016.0 |
| 20260507071539 | 53 | 224 | 7.8 | 13.9 | 0.00 | 0.00 | 0.00 | 69 | 1015.9 |
| 20260507070025 | 54 | 226 | 10.4 | 15.6 | 0.00 | 0.00 | 0.00 | 67 | 1015.9 |
| 20260507064523 | 54 | 233 | 7.0 | 12.2 | 0.00 | 0.00 | 0.00 | 67 | 1016.0 |
| 20260507063026 | 54 | 232 | 7.8 | 14.8 | 0.00 | 0.00 | 0.00 | 66 | 1015.8 |
| 20260507061522 | 53 | 232 | 7.0 | 8.7 | 0.00 | 0.00 | 0.00 | 69 | 1015.7 |
| 20260507060020 | 54 | 223 | 7.0 | 10.4 | 0.00 | 0.00 | 0.00 | 67 | 1015.8 |
| 20260507054520 | 54 | 213 | 9.6 | 10.4 | 0.00 | 0.00 | 0.00 | 66 | 1015.9 |
| 20260507053019 | 56 | 207 | 3.5 | 5.2 | 0.00 | 0.00 | 0.00 | 62 | 1016.0 |
| 20260507051518 | 57 | 223 | 4.3 | 13.0 | 0.00 | 0.00 | 0.00 | 60 | 1015.9 |
| 20260507050017 | 58 | 269 | 10.4 | 16.5 | 0.00 | 0.00 | 0.00 | 58 | 1015.8 |
| 20260507044516 | 58 | 243 | 11.3 | 14.8 | 0.00 | 0.00 | 0.00 | 57 | 1015.7 |
| 20260507043016 | 60 | 239 | 10.4 | 16.5 | 0.00 | 0.00 | 0.00 | 56 | 1015.7 |
| 20260507041515 | 61 | 256 | 13.9 | 19.1 | 0.00 | 0.00 | 0.00 | 55 | 1015.4 |
| 20260507040016 | 62 | 262 | 12.2 | 21.7 | 0.00 | 0.00 | 0.00 | 54 | 1015.3 |
| 20260507034518 | 62 | 250 | 14.8 | 23.5 | 0.00 | 0.00 | 0.00 | 53 | 1015.0 |
| 20260507033014 | 63 | 262 | 14.8 | 22.6 | 0.00 | 0.00 | 0.00 | 53 | 1014.7 |
| 20260507031513 | 64 | 254 | 16.5 | 21.7 | 0.00 | 0.00 | 0.00 | 52 | 1014.4 |
| 20260507030014 | 65 | 250 | 14.8 | 21.7 | 0.00 | 0.00 | 0.00 | 50 | 1014.5 |
| 20260507024513 | 66 | 257 | 15.6 | 20.0 | 0.00 | 0.00 | 0.00 | 47 | 1014.2 |
| 20260507023012 | 67 | 243 | 15.6 | 21.7 | 0.00 | 0.00 | 0.00 | 44 | 1014.2 |
| 20260507021515 | 67 | 254 | 16.5 | 22.6 | 0.00 | 0.00 | 0.00 | 43 | 1014.2 |
| 20260507020011 | 68 | 254 | 14.8 | 20.9 | 0.00 | 0.00 | 0.00 | 41 | 1014.1 |
| 20260507014510 | 69 | 262 | 14.8 | 20.9 | 0.00 | 0.00 | 0.00 | 38 | 1014.0 |
| 20260507013010 | 70 | 259 | 14.8 | 20.0 | 0.00 | 0.00 | 0.00 | 36 | 1013.9 |
| 20260507011516 | 71 | 256 | 14.8 | 21.7 | 0.00 | 0.00 | 0.00 | 35 | 1013.9 |
| 20260507010008 | 72 | 253 | 16.5 | 24.3 | 0.00 | 0.00 | 0.00 | 32 | 1014.0 |
| 20260507004511 | 73 | 254 | 13.9 | 20.0 | 0.00 | 0.00 | 0.00 | 32 | 1013.9 |
| 20260507003009 | 74 | 250 | 11.3 | 18.2 | 0.00 | 0.00 | 0.00 | 32 | 1013.8 |
| 20260507001507 | 75 | 249 | 12.2 | 20.0 | 0.00 | 0.00 | 0.00 | 30 | 1013.7 |